US 13 @ Nanticoke River, Seaford DE USA current weather conditions

sailwx.info

Wind from 178 at 1 knots gusting 2

Air temperature 14.7° C
Dewpoint 13.6° C

Last reported at 2020-Sep-24 07:50 UTC.
Time now 2020-Sep-24 08:17 UTC

Location: N 38°39' W 075°36'.
View on Google Maps.

See reports from other nearby stations

  
Tides and Currents Weather Stations Pressure Air Temp Water Temp Dewpoint Dewpoint Depression Visibility Wind Speed Wind Dir Waves Ship Positions
date/time (UTC)wind fromknots sea level pressurealtimeterstation pressurevisibilityair tempwater tempwave heightnotes
2020-Sep-24 07:50 178 1 gusting 2 14.7
2020-Sep-24 07:45 175 1 gusting 3 14.8
2020-Sep-24 07:40 186 1 gusting 3 14.8
2020-Sep-24 07:35 202 1 gusting 3 14.7
2020-Sep-24 07:30 181 2 gusting 3 14.6
2020-Sep-24 07:25 175 2 gusting 3 14.7
2020-Sep-24 07:20 179 2 gusting 3 15.1
2020-Sep-24 07:15 15.1
2020-Sep-24 07:10 189 1 gusting 3 15.2
2020-Sep-24 07:05 193 1 gusting 3 15.1
2020-Sep-24 07:00 190 1 gusting 2 14.8
2020-Sep-24 06:55 202 1 gusting 2 15.2
2020-Sep-24 06:50 204 1 gusting 3 15.3
2020-Sep-24 06:45 197 1 gusting 4 15.2
2020-Sep-24 06:40 204 2 gusting 4 15.2
2020-Sep-24 06:35 202 1 gusting 2 15.4
2020-Sep-24 06:30 194 1 gusting 2 15.3
2020-Sep-24 06:25 200 1 gusting 3 15.3
2020-Sep-24 06:20 216 2 gusting 3 15.3
2020-Sep-24 06:15 209 1 gusting 2 15.3
2020-Sep-24 06:10 218 2 gusting 3 15.2
2020-Sep-24 06:05 214 1 gusting 3 15.2
2020-Sep-24 06:00 210 2 gusting 3 15.3
2020-Sep-24 05:55 216 1 gusting 2 15.2
2020-Sep-24 05:50 189 1 gusting 2 15.3
2020-Sep-24 05:45 210 1 gusting 4 15.2
2020-Sep-24 05:40 207 2 gusting 4 15.1
2020-Sep-24 05:35 190 1 gusting 2 15.2
2020-Sep-24 05:30 178 1 gusting 3 14.9
2020-Sep-24 05:25 179 2 gusting 3 14.9
2020-Sep-24 05:20 184 1 gusting 3 15.1
2020-Sep-24 05:15 185 1 gusting 2 14.8
2020-Sep-24 05:10 193 1 gusting 3 15.1
2020-Sep-24 05:05 183 2 gusting 4 15.2
2020-Sep-24 05:00 178 2 gusting 4 15.2
2020-Sep-24 04:55 175 2 gusting 3 14.9
2020-Sep-24 04:50 177 2 gusting 3 14.8
2020-Sep-24 04:45 176 1 gusting 2 15.1
2020-Sep-24 04:40 15.2
2020-Sep-24 04:35 172 1 gusting 2 15.2
2020-Sep-24 04:30 176 1 gusting 2 15.2
2020-Sep-24 04:25 169 1 gusting 3 15.2
2020-Sep-24 04:20 176 1 gusting 3 15.1
2020-Sep-24 04:15 179 1 15.2
2020-Sep-24 04:10 15.2
2020-Sep-24 04:05 174 1 gusting 3 15.3
2020-Sep-24 04:00 167 2 gusting 3 15.7
2020-Sep-24 03:55 15.8
2020-Sep-24 03:50 185 1 gusting 2 15.8
2020-Sep-24 03:45 174 1 gusting 3 16.1
2020-Sep-24 03:40 177 2 gusting 3 15.8
2020-Sep-24 03:35 185 1 gusting 3 16.1
2020-Sep-24 03:30 199 1 gusting 3 16.1
2020-Sep-24 03:25 186 1 gusting 3 16.4
2020-Sep-24 03:20 180 2 gusting 3 16.4
2020-Sep-24 03:15 193 1 gusting 3 16.6
2020-Sep-24 03:10 214 1 gusting 3 16.6
2020-Sep-24 03:05 199 1 gusting 3 16.6
2020-Sep-24 03:00 191 1 gusting 1 16.6
2020-Sep-24 02:55 16.6
2020-Sep-24 02:50 182 1 gusting 2 16.6
2020-Sep-24 02:45 197 1 gusting 2 16.9
2020-Sep-24 02:40 199 1 gusting 3 17.1
2020-Sep-24 02:35 195 1 gusting 4 17.1
2020-Sep-24 02:30 203 2 gusting 4 17.4
2020-Sep-24 02:25 196 2 gusting 4 17.4
2020-Sep-24 02:20 203 2 gusting 4 17.2
2020-Sep-24 02:15 205 2 gusting 4 17.4
2020-Sep-24 02:10 205 2 gusting 4 17.4
2020-Sep-24 02:05 204 2 gusting 4 17.4
2020-Sep-24 02:00 201 2 gusting 4 17.4
2020-Sep-24 01:55 209 2 gusting 5 17.4
2020-Sep-24 01:50 216 2 gusting 5 17.4
2020-Sep-24 01:45 211 2 gusting 4 17.4
2020-Sep-24 01:40 213 2 gusting 4 17.4
2020-Sep-24 01:35 219 2 gusting 4 17.6
2020-Sep-24 01:30 200 3 gusting 4 17.9
2020-Sep-24 01:25 180 2 gusting 4 17.9
2020-Sep-24 01:20 208 2 gusting 4 18.1
2020-Sep-24 01:15 203 2 gusting 4 18.1
2020-Sep-24 01:10 193 2 gusting 5 18.1
2020-Sep-24 01:05 193 3 gusting 5 18.2
2020-Sep-24 01:00 191 2 gusting 3 18.4
2020-Sep-24 00:55 204 1 gusting 3 18.4
2020-Sep-24 00:50 217 1 gusting 3 18.4
2020-Sep-24 00:45 207 2 gusting 3 18.6
2020-Sep-24 00:40 212 2 gusting 3 18.6
2020-Sep-24 00:35 214 2 gusting 4 18.8
2020-Sep-24 00:30 206 2 gusting 4 18.9
2020-Sep-24 00:25 201 2 gusting 4 18.9
2020-Sep-24 00:20 205 2 gusting 4 19.1
2020-Sep-24 00:15 206 2 gusting 4 19.2
2020-Sep-24 00:10 202 2 gusting 4 19.4
2020-Sep-24 00:05 197 2 gusting 4 19.6
2020-Sep-24 00:00 204 2 gusting 4 19.6
2020-Sep-23 23:55 208 2 gusting 4 19.6
2020-Sep-23 23:50 215 2 gusting 4 19.8
2020-Sep-23 23:45 215 2 gusting 5 19.6
2020-Sep-23 23:40 216 3 gusting 5 19.9
2020-Sep-23 23:35 213 2 gusting 4 19.9
2020-Sep-23 23:30 205 2 gusting 4 20.1
2020-Sep-23 23:25 204 2 gusting 3 20.1
2020-Sep-23 23:20 207 2 gusting 2 20.4
2020-Sep-23 23:15 212 2 gusting 3 20.8
2020-Sep-23 23:10 206 1 gusting 4 20.9
2020-Sep-23 23:05 208 2 gusting 4 20.9
2020-Sep-23 23:00 211 2 gusting 4 21.2
2020-Sep-23 22:55 211 2 gusting 4 21.4
2020-Sep-23 22:50 216 2 gusting 3 20.9
2020-Sep-23 22:45 212 2 gusting 3 21.9
2020-Sep-23 22:40 209 2 gusting 3 22.4
2020-Sep-23 22:35 214 1 gusting 4 22.8
2020-Sep-23 22:30 209 1 gusting 4 23.1
2020-Sep-23 22:25 218 2 gusting 4 23.1
2020-Sep-23 22:20 213 2 gusting 6 23.4
2020-Sep-23 22:15 209 2 gusting 6 23.6
2020-Sep-23 22:10 205 2 gusting 6 23.8
2020-Sep-23 22:05 238 2 gusting 7 23.9
2020-Sep-23 22:00 216 3 gusting 7 24.1
2020-Sep-23 21:55 256 3 gusting 10 24.2
2020-Sep-23 21:50 257 3 gusting 10 24.2
2020-Sep-23 21:45 226 2 gusting 13 24.4
2020-Sep-23 21:40 232 2 gusting 13 24.4
2020-Sep-23 21:35 239 3 gusting 10 24.4
2020-Sep-23 21:30 233 3 gusting 8 24.8
2020-Sep-23 21:25 212 2 gusting 11 24.6
2020-Sep-23 21:20 243 3 gusting 11 24.4
2020-Sep-23 21:15 239 3 gusting 11 24.6
2020-Sep-23 21:10 258 3 gusting 10 24.6
2020-Sep-23 21:05 258 5 gusting 10 24.6
2020-Sep-23 21:00 242 3 gusting 11 24.9
2020-Sep-23 20:55 242 4 gusting 11 24.6
2020-Sep-23 20:50 225 3 gusting 11 24.8
2020-Sep-23 20:45 239 3 gusting 11 24.4
2020-Sep-23 20:40 245 4 gusting 11 24.4
2020-Sep-23 20:35 243 4 gusting 12 24.8
2020-Sep-23 20:30 241 5 gusting 12 24.4
2020-Sep-23 20:25 222 6 gusting 12 24.4
2020-Sep-23 20:20 221 5 gusting 10 24.6
2020-Sep-23 20:15 214 4 gusting 10 24.8
2020-Sep-23 20:10 226 4 gusting 10 24.9
2020-Sep-23 20:05 234 3 gusting 11 24.9
2020-Sep-23 20:00 254 5 gusting 11 24.9
2020-Sep-23 19:55 244 4 gusting 9 25.4
2020-Sep-23 19:50 275 5 gusting 9 25.2
2020-Sep-23 19:45 263 3 gusting 9 25.4
2020-Sep-23 19:40 233 3 gusting 11 25.6
2020-Sep-23 19:35 248 4 gusting 11 25.4
2020-Sep-23 19:30 249 5 gusting 11 25.1
2020-Sep-23 19:25 252 3 gusting 11 25.1
2020-Sep-23 19:20 260 3 gusting 9 26.1
2020-Sep-23 19:15 263 4 gusting 9 25.1
2020-Sep-23 19:10 223 4 gusting 8 25.4
2020-Sep-23 19:05 223 3 gusting 8 25.6
2020-Sep-23 19:00 272 4 gusting 8 25.1
2020-Sep-23 18:55 267 4 gusting 8 25.4
2020-Sep-23 18:50 302 3 gusting 8 25.6
2020-Sep-23 18:45 213 3 gusting 12 25.6
2020-Sep-23 18:40 235 4 gusting 12 25.4
2020-Sep-23 18:35 267 2 gusting 8 25.6
2020-Sep-23 18:30 246 3 gusting 11 25.6
2020-Sep-23 18:25 280 3 gusting 11 25.4
2020-Sep-23 18:20 250 4 gusting 8 24.9
2020-Sep-23 18:15 233 3 gusting 8 25.2
2020-Sep-23 18:10 285 2 gusting 9 24.9
2020-Sep-23 18:05 305 5 gusting 9 25.1
2020-Sep-23 18:00 274 3 gusting 8 24.8
2020-Sep-23 17:55 320 4 gusting 8 24.9
2020-Sep-23 17:50 326 4 gusting 10 24.9
2020-Sep-23 17:45 337 5 gusting 10 24.8
2020-Sep-23 17:40 257 4 gusting 9 25.1
2020-Sep-23 17:35 268 4 gusting 9 25.1
2020-Sep-23 17:30 306 2 gusting 9 24.8
2020-Sep-23 17:25 293 1 gusting 9 24.6
2020-Sep-23 17:20 308 5 gusting 9 24.6
2020-Sep-23 17:15 333 3 gusting 11 24.6
2020-Sep-23 17:10 297 4 gusting 11 24.1
2020-Sep-23 17:05 334 5 gusting 11 23.9
2020-Sep-23 17:00 321 4 gusting 10 24.2
2020-Sep-23 16:55 341 4 gusting 10 23.9
2020-Sep-23 16:50 280 6 gusting 9 23.9
2020-Sep-23 16:45 279 5 gusting 8 23.9
2020-Sep-23 16:40 282 3 gusting 11 23.8
2020-Sep-23 16:35 293 5 gusting 11 23.8
2020-Sep-23 16:30 305 5 gusting 8 23.6
2020-Sep-23 16:25 305 3 gusting 9 23.8
2020-Sep-23 16:20 292 5 gusting 9 23.4
2020-Sep-23 16:15 286 5 gusting 8 23.6
2020-Sep-23 16:10 341 4 gusting 7 23.6
2020-Sep-23 16:05 330 3 gusting 9 23.4
2020-Sep-23 16:00 297 4 gusting 9 23.1
2020-Sep-23 15:55 326 3 gusting 7 22.9
2020-Sep-23 15:50 296 3 gusting 8 23.1
2020-Sep-23 15:45 319 5 gusting 11 22.6
2020-Sep-23 15:40 337 6 gusting 11 22.6
2020-Sep-23 15:35 006 4 gusting 11 22.4
2020-Sep-23 15:30 302 5 gusting 11 22.4
2020-Sep-23 15:25 310 4 gusting 9 22.1
2020-Sep-23 15:20 313 4 gusting 10 21.9
2020-Sep-23 15:15 327 6 gusting 10 21.9
2020-Sep-23 15:10 279 4 gusting 8 21.8
2020-Sep-23 15:05 334 6 gusting 8 21.6
2020-Sep-23 15:00 294 4 gusting 9 21.4
2020-Sep-23 14:55 306 5 gusting 9 21.2
2020-Sep-23 14:50 303 4 gusting 8 21.1
2020-Sep-23 14:45 285 5 gusting 9 21.1
2020-Sep-23 14:40 305 5 gusting 9 21.1
2020-Sep-23 14:35 357 4 gusting 9 20.9
2020-Sep-23 14:30 314 4 gusting 9 20.6
2020-Sep-23 14:25 309 5 gusting 8 20.6
2020-Sep-23 14:20 343 4 gusting 8 20.4
2020-Sep-23 14:15 332 3 gusting 8 20.2
2020-Sep-23 14:10 300 4 gusting 8 20.1
2020-Sep-23 14:05 312 3 gusting 8 19.9
2020-Sep-23 14:00 305 4 gusting 8 19.9
2020-Sep-23 13:55 295 2 gusting 6 19.6
2020-Sep-23 13:50 315 2 gusting 7 19.4
2020-Sep-23 13:45 293 2 gusting 8 19.1
2020-Sep-23 13:40 302 3 gusting 8 18.9
2020-Sep-23 13:35 319 2 gusting 5 18.9
2020-Sep-23 13:30 333 2 gusting 7 18.6
2020-Sep-23 13:25 337 3 gusting 7 18.4
2020-Sep-23 13:20 308 2 gusting 7 18.2
2020-Sep-23 13:15 305 2 gusting 6 18.1
2020-Sep-23 13:10 281 2 gusting 5 17.9
2020-Sep-23 13:05 337 2 gusting 5 17.6
2020-Sep-23 13:00 328 2 gusting 7 17.2
2020-Sep-23 12:55 319 2 gusting 7 16.9
2020-Sep-23 12:50 325 4 gusting 6 16.6
2020-Sep-23 12:45 315 3 gusting 6 16.4
2020-Sep-23 12:40 305 3 gusting 6 16.1
2020-Sep-23 12:35 319 2 gusting 5 15.8
2020-Sep-23 12:30 325 2 gusting 6 15.6
2020-Sep-23 12:25 327 1 gusting 6 15.2
2020-Sep-23 12:20 336 2 gusting 5 14.9
2020-Sep-23 12:15 315 1 gusting 5 14.8
2020-Sep-23 12:10 308 2 gusting 4 14.7
2020-Sep-23 12:05 321 2 gusting 4 14.3
2020-Sep-23 12:00 339 1 gusting 4 14.2
2020-Sep-23 11:55 312 2 gusting 5 13.9
2020-Sep-23 11:50 320 1 gusting 5 13.8
2020-Sep-23 11:45 340 1 gusting 4 13.8
2020-Sep-23 11:40 332 2 gusting 4 13.7
2020-Sep-23 11:35 341 1 gusting 3 13.4
2020-Sep-23 11:30 326 1 gusting 4 13.1
2020-Sep-23 11:25 346 1 gusting 4 13.2
2020-Sep-23 11:20 331 1 gusting 3 13.1
2020-Sep-23 11:15 352 1 gusting 3 13.2
2020-Sep-23 11:10 340 1 gusting 2 12.9
2020-Sep-23 11:05 352 1 13.2
2020-Sep-23 11:00 12.8
2020-Sep-23 10:55 329 1 gusting 3 13.2
2020-Sep-23 10:50 359 1 gusting 3 13.2
2020-Sep-23 10:45 13.1
2020-Sep-23 10:40 337 1 gusting 3 13.1
2020-Sep-23 10:35 356 1 gusting 3 13.1
2020-Sep-23 10:30 354 1 gusting 3 13.1
2020-Sep-23 10:25 345 1 gusting 3 13.1
2020-Sep-23 10:20 341 0 gusting 2 13.1
2020-Sep-23 10:15 355 1 gusting 2 12.9
2020-Sep-23 10:10 339 1 gusting 3 12.8
2020-Sep-23 10:05 323 1 gusting 3 12.7
2020-Sep-23 10:00 307 0 gusting 3 12.8
2020-Sep-23 09:55 324 1 gusting 2 12.8
2020-Sep-23 09:50 333 1 gusting 2 12.8
2020-Sep-23 09:45 312 0 gusting 2 12.8
2020-Sep-23 09:40 303 1 gusting 2 12.8
2020-Sep-23 09:35 12.6
2020-Sep-23 09:30 286 0 gusting 3 12.7
2020-Sep-23 09:25 286 1 gusting 3 12.8
2020-Sep-23 09:20 303 1 gusting 3 12.8
2020-Sep-23 09:15 309 0 gusting 2 12.8
2020-Sep-23 09:10 278 1 gusting 4 12.8
2020-Sep-23 09:05 295 1 gusting 4 13.1
2020-Sep-23 09:00 299 1 gusting 3 13.1
2020-Sep-23 08:55 299 1 gusting 3 13.2
2020-Sep-23 08:50 323 1 gusting 3 13.2
2020-Sep-23 08:45 356 1 gusting 2 13.4
2020-Sep-23 08:40 315 1 gusting 3 13.6
2020-Sep-23 08:35 328 1 gusting 3 13.3
2020-Sep-23 08:30 302 1 gusting 2 13.3
2020-Sep-23 08:25 293 0 gusting 3 13.3
2020-Sep-23 08:20 291 1 gusting 3 13.8
2020-Sep-23 08:15 319 1 gusting 4 13.6
2020-Sep-23 08:10 319 1 gusting 4 13.6
2020-Sep-23 08:05 267 1 gusting 3 13.3
2020-Sep-23 08:00 297 1 gusting 3 13.4
2020-Sep-23 07:55 288 1 gusting 2 13.4
2020-Sep-23 07:50 281 1 gusting 2 13.7
2020-Sep-23 07:45 318 1 gusting 3 13.6
2020-Sep-23 07:40 330 1 gusting 3 13.6
2020-Sep-23 07:35 13.6
2020-Sep-23 07:30 276 1 gusting 2 13.6
2020-Sep-23 07:25 13.8
2020-Sep-23 07:20 360 1 gusting 3 13.8
2020-Sep-23 07:15 356 1 gusting 3 13.8
2020-Sep-23 07:10 342 1 gusting 3 13.8
2020-Sep-23 07:05 332 1 gusting 3 13.7
2020-Sep-23 07:00 220 0 gusting 2 13.6
2020-Sep-23 06:55 13.3
2020-Sep-23 06:50 13.3
2020-Sep-23 06:45 13.4
2020-Sep-23 06:40 338 1 gusting 3 13.2
2020-Sep-23 06:35 058 1 gusting 3 13.2
2020-Sep-23 06:30 210 1 13.1
2020-Sep-23 06:25 12.9
2020-Sep-23 06:20 196 1 13.2
2020-Sep-23 06:15 13.2
2020-Sep-23 06:10 13.3
2020-Sep-23 06:05 13.3
2020-Sep-23 06:00 197 1 gusting 3 13.4
2020-Sep-23 05:55 205 1 gusting 3 13.6
2020-Sep-23 05:50 203 1 gusting 3 13.7
2020-Sep-23 05:45 204 1 gusting 3 13.8
2020-Sep-23 05:40 203 1 gusting 3 13.6
2020-Sep-23 05:35 208 1 gusting 3 13.8
2020-Sep-23 05:30 188 1 gusting 4 13.6
2020-Sep-23 05:25 199 1 gusting 4 13.4
2020-Sep-23 05:20 203 1 gusting 4 13.4
2020-Sep-23 05:15 216 1 gusting 4 13.3
2020-Sep-23 05:10 209 1 gusting 3 13.3
2020-Sep-23 05:05 203 1 gusting 2 13.2
2020-Sep-23 05:00 187 1 gusting 2 13.2
2020-Sep-23 04:55 189 1 gusting 3 12.9
2020-Sep-23 04:50 189 1 gusting 3 13.1
2020-Sep-23 04:45 197 1 gusting 2 13.2
2020-Sep-23 04:40 200 1 gusting 2 13.2
2020-Sep-23 04:35 210 1 gusting 3 13.2
2020-Sep-23 04:30 182 1 gusting 4 13.3
2020-Sep-23 04:25 193 2 gusting 4 13.2
2020-Sep-23 04:20 184 1 gusting 2 13.1
2020-Sep-23 04:15 173 1 gusting 2 13.1
2020-Sep-23 04:10 173 1 gusting 2 13.2
2020-Sep-23 04:05 191 1 gusting 2 13.3
2020-Sep-23 04:00 190 1 gusting 2 13.2
2020-Sep-23 03:55 202 1 gusting 2 13.1
2020-Sep-23 03:50 191 1 gusting 2 12.8
2020-Sep-23 03:45 12.9
2020-Sep-23 03:40 171 1 gusting 2 12.8
2020-Sep-23 03:35 164 1 gusting 2 12.6
2020-Sep-23 03:30 180 1 gusting 2 12.3
2020-Sep-23 03:25 181 1 gusting 2 12.6
2020-Sep-23 03:20 168 1 gusting 2 13.2
2020-Sep-23 03:15 169 1 gusting 2 13.2
2020-Sep-23 03:10 189 1 gusting 2 13.3
2020-Sep-23 03:05 201 1 gusting 3 13.3
2020-Sep-23 03:00 197 1 gusting 3 13.2
2020-Sep-23 02:55 191 1 gusting 3 13.2
2020-Sep-23 02:50 194 2 gusting 3 13.2
2020-Sep-23 02:45 195 1 gusting 4 13.1
2020-Sep-23 02:40 205 2 gusting 4 13.1
2020-Sep-23 02:35 205 2 gusting 3 13.1
2020-Sep-23 02:30 190 1 gusting 3 12.8
2020-Sep-23 02:25 172 2 gusting 3 13.1
2020-Sep-23 02:20 180 2 gusting 3 13.3
2020-Sep-23 02:15 173 2 gusting 3 13.6
2020-Sep-23 02:10 174 1 gusting 2 13.8
2020-Sep-23 02:05 195 1 gusting 3 13.8
2020-Sep-23 02:00 192 2 gusting 3 14.1
2020-Sep-23 01:55 196 2 gusting 3 14.2
2020-Sep-23 01:50 195 1 gusting 4 14.2
2020-Sep-23 01:45 204 1 gusting 4 14.2
2020-Sep-23 01:40 209 2 gusting 4 14.3
2020-Sep-23 01:35 215 2 gusting 4 14.6
2020-Sep-23 01:30 213 2 gusting 6 14.6
2020-Sep-23 01:25 209 2 gusting 6 14.4
2020-Sep-23 01:20 213 2 gusting 4 14.4
2020-Sep-23 01:15 212 2 gusting 4 14.4
2020-Sep-23 01:10 207 2 gusting 4 14.3
2020-Sep-23 01:05 205 2 gusting 4 14.4
2020-Sep-23 01:00 203 1 gusting 4 14.8
2020-Sep-23 00:55 202 1 gusting 4 14.8
2020-Sep-23 00:50 206 2 gusting 3 14.8
2020-Sep-23 00:45 203 1 gusting 3 14.9
2020-Sep-23 00:40 205 2 gusting 3 15.1
2020-Sep-23 00:35 204 1 gusting 4 15.3
2020-Sep-23 00:30 202 2 gusting 4 15.4
2020-Sep-23 00:25 207 2 gusting 3 15.8
2020-Sep-23 00:20 208 1 gusting 3 15.9
2020-Sep-23 00:15 205 2 gusting 4 15.9
2020-Sep-23 00:10 225 2 gusting 4 16.4
2020-Sep-23 00:05 210 2 gusting 4 16.4
2020-Sep-23 00:00 212 2 gusting 4 16.4
2020-Sep-22 23:55 218 2 gusting 5 16.8
2020-Sep-22 23:50 215 2 gusting 5 16.8
2020-Sep-22 23:45 199 1 gusting 4 16.9
2020-Sep-22 23:40 211 2 gusting 6 16.9
2020-Sep-22 23:35 230 2 gusting 6 16.9
2020-Sep-22 23:30 212 1 gusting 6 17.1
2020-Sep-22 23:25 231 1 gusting 4 17.1
2020-Sep-22 23:20 210 1 gusting 4 17.4
2020-Sep-22 23:15 233 1 gusting 4 17.4
2020-Sep-22 23:10 217 1 gusting 4 17.6
2020-Sep-22 23:05 223 1 gusting 4 17.8
2020-Sep-22 23:00 211 1 gusting 4 17.9
2020-Sep-22 22:55 218 2 gusting 6 18.1
2020-Sep-22 22:50 212 2 gusting 6 18.4
2020-Sep-22 22:45 222 2 gusting 6 18.6
2020-Sep-22 22:40 217 2 gusting 6 18.8
2020-Sep-22 22:35 221 1 gusting 5 19.1
2020-Sep-22 22:30 224 2 gusting 7 19.6
2020-Sep-22 22:25 266 3 gusting 7 19.6
2020-Sep-22 22:20 269 3 gusting 7 19.9
2020-Sep-22 22:15 284 2 gusting 8 19.9
2020-Sep-22 22:10 269 4 gusting 8 20.1
2020-Sep-22 22:05 279 4 gusting 8 20.1
2020-Sep-22 22:00 266 2 gusting 10 20.4
2020-Sep-22 21:55 275 5 gusting 12 20.4
2020-Sep-22 21:50 283 3 gusting 12 20.4
2020-Sep-22 21:45 284 5 gusting 11 20.6
2020-Sep-22 21:40 297 2 gusting 10 20.9
2020-Sep-22 21:35 280 4 gusting 10 20.6
2020-Sep-22 21:30 310 5 gusting 11 20.8
2020-Sep-22 21:25 293 4 gusting 11 20.8
2020-Sep-22 21:20 309 3 gusting 8 20.9
2020-Sep-22 21:15 306 4 gusting 9 20.9
2020-Sep-22 21:10 287 3 gusting 12 20.9
2020-Sep-22 21:05 295 7 gusting 12 20.6
2020-Sep-22 21:00 290 5 gusting 10 20.8
2020-Sep-22 20:55 312 5 gusting 10 20.8
2020-Sep-22 20:50 318 5 gusting 12 20.6
2020-Sep-22 20:45 353 7 gusting 12 20.8
2020-Sep-22 20:40 300 5 gusting 11 20.9
2020-Sep-22 20:35 287 3 gusting 11 21.1
2020-Sep-22 20:30 327 3 gusting 11 20.6
2020-Sep-22 20:25 321 4 gusting 12 21.1
2020-Sep-22 20:20 329 3 gusting 13 20.8
2020-Sep-22 20:15 351 6 gusting 13 20.8
2020-Sep-22 20:10 321 4 gusting 12 20.6
2020-Sep-22 20:05 321 6 gusting 11 20.6
2020-Sep-22 20:00 343 6 gusting 14 20.4
2020-Sep-22 19:55 316 7 gusting 14 20.4
2020-Sep-22 19:50 321 4 gusting 14 20.4
2020-Sep-22 19:45 350 6 gusting 12 20.8
2020-Sep-22 19:40 327 5 gusting 12 20.6
2020-Sep-22 19:35 298 5 gusting 12 20.6
2020-Sep-22 19:30 315 5 gusting 12 20.4
2020-Sep-22 19:25 328 5 gusting 11 20.4
2020-Sep-22 19:20 346 7 gusting 12 20.4
2020-Sep-22 19:15 315 6 gusting 12 20.6
2020-Sep-22 19:10 301 4 gusting 12 20.4
2020-Sep-22 19:05 307 4 gusting 12 20.4
2020-Sep-22 19:00 324 4 gusting 14 20.4
2020-Sep-22 18:55 294 6 gusting 14 20.4
2020-Sep-22 18:50 318 6 gusting 11 20.2
2020-Sep-22 18:45 319 6 gusting 11 20.4
2020-Sep-22 18:40 352 6 gusting 11 20.2
2020-Sep-22 18:35 327 5 gusting 15 20.4
2020-Sep-22 18:30 337 5 gusting 15 20.2
2020-Sep-22 18:25 330 7 gusting 14 20.4
2020-Sep-22 18:20 351 6 gusting 12 20.6
2020-Sep-22 18:15 296 6 gusting 12 20.1
2020-Sep-22 18:10 314 6 gusting 15 20.6
2020-Sep-22 18:05 344 6 gusting 15 20.2
2020-Sep-22 18:00 317 7 gusting 14 20.1
2020-Sep-22 17:55 317 5 gusting 16 20.2
2020-Sep-22 17:50 342 6 gusting 16 19.8
2020-Sep-22 17:45 338 7 gusting 12 20.2
2020-Sep-22 17:40 295 4 gusting 11 20.1
2020-Sep-22 17:35 294 4 gusting 11 20.1
2020-Sep-22 17:30 326 5 gusting 12 19.6
2020-Sep-22 17:25 344 6 gusting 12 19.9
2020-Sep-22 17:20 306 6 gusting 12 19.8
2020-Sep-22 17:15 318 3 gusting 13 19.8
2020-Sep-22 17:10 341 5 gusting 15 19.4
2020-Sep-22 17:05 324 6 gusting 15 19.4
2020-Sep-22 17:00 351 9 gusting 13 19.2
2020-Sep-22 16:55 332 6 gusting 11 19.2
2020-Sep-22 16:50 360 5 gusting 13 19.2
2020-Sep-22 16:45 316 5 gusting 15 19.2
2020-Sep-22 16:40 348 6 gusting 15 19.1
2020-Sep-22 16:35 332 6 gusting 13 19.2
2020-Sep-22 16:30 320 3 gusting 11 19.2
2020-Sep-22 16:25 296 4 gusting 12 18.9
2020-Sep-22 16:20 349 6 gusting 12 18.9
2020-Sep-22 16:15 345 5 gusting 12 18.9
2020-Sep-22 16:10 356 7 gusting 12 18.2
2020-Sep-22 16:05 354 6 gusting 12 18.4
2020-Sep-22 16:00 342 6 gusting 14 18.2
2020-Sep-22 15:55 327 4 gusting 14 18.1
2020-Sep-22 15:50 345 7 gusting 16 18.1
2020-Sep-22 15:45 330 7 gusting 16 17.9
2020-Sep-22 15:40 308 4 gusting 13 18.1
2020-Sep-22 15:35 360 7 gusting 14 17.9
2020-Sep-22 15:30 357 6 gusting 14 18.1
2020-Sep-22 15:25 331 6 gusting 11 17.6
2020-Sep-22 15:20 350 6 gusting 11 17.6
2020-Sep-22 15:15 339 6 gusting 12 17.4
2020-Sep-22 15:10 358 9 gusting 12 17.2
2020-Sep-22 15:05 002 6 gusting 11 16.9
2020-Sep-22 15:00 323 5 gusting 11 17.1
2020-Sep-22 14:55 348 6 gusting 10 16.6
2020-Sep-22 14:50 340 6 gusting 11 16.9
2020-Sep-22 14:45 326 6 gusting 12 16.4
2020-Sep-22 14:40 332 6 gusting 13 16.4
2020-Sep-22 14:35 305 6 gusting 13 16.6
2020-Sep-22 14:30 009 8 gusting 12 16.1
2020-Sep-22 14:25 348 7 gusting 12 15.8
2020-Sep-22 14:20 352 7 gusting 11 15.8
2020-Sep-22 14:15 348 5 gusting 10 15.8
2020-Sep-22 14:10 326 4 gusting 9 15.6
2020-Sep-22 14:05 357 6 gusting 9 15.3
2020-Sep-22 14:00 340 4 gusting 9 15.2
2020-Sep-22 13:55 355 4 gusting 9 15.2
2020-Sep-22 13:50 360 6 gusting 9 14.8
2020-Sep-22 13:40 349 5 gusting 9 14.3
2020-Sep-22 13:35 348 6 gusting 8 14.3
2020-Sep-22 13:30 356 4 gusting 9 14.3
2020-Sep-22 13:25 005 5 gusting 9 14.2
2020-Sep-22 13:20 007 4 gusting 8 14.2
2020-Sep-22 13:15 358 5 gusting 8 13.7
2020-Sep-22 13:10 334 4 gusting 9 13.7
2020-Sep-22 13:05 004 6 gusting 9 13.3
2020-Sep-22 13:00 348 5 gusting 9 13.2
2020-Sep-22 12:55 352 4 gusting 8 12.9
2020-Sep-22 12:50 353 4 gusting 10 12.8
2020-Sep-22 12:45 348 5 gusting 10 12.3
2020-Sep-22 12:40 335 3 gusting 6 12.1
2020-Sep-22 12:35 339 2 gusting 6 11.8
2020-Sep-22 12:30 359 3 gusting 6 11.6
2020-Sep-22 12:25 001 3 gusting 6 11.2
2020-Sep-22 12:20 004 2 gusting 5 10.9
2020-Sep-22 12:15 359 2 gusting 4 10.4
2020-Sep-22 12:10 342 2 gusting 3 10.1
2020-Sep-22 12:05 324 1 gusting 3 9.8
2020-Sep-22 12:00 337 2 gusting 3 9.7
2020-Sep-22 11:55 338 1 gusting 3 9.6
2020-Sep-22 11:50 360 1 gusting 4 9.5
2020-Sep-22 11:45 354 1 gusting 5 9.3
2020-Sep-22 11:40 357 1 gusting 5 9.1
2020-Sep-22 11:35 002 1 gusting 3 8.6
2020-Sep-22 11:30 309 1 gusting 2 8.3
2020-Sep-22 11:25 316 1 gusting 2 8.1
2020-Sep-22 11:20 310 1 gusting 3 8.0
2020-Sep-22 11:15 308 1 gusting 3 8.0
2020-Sep-22 11:10 8.0
2020-Sep-22 11:05 316 1 gusting 3 8.0
2020-Sep-22 11:00 301 1 gusting 3 7.8
2020-Sep-22 10:55 310 1 gusting 4 7.8
2020-Sep-22 10:50 294 2 gusting 4 7.8
2020-Sep-22 10:45 303 1 gusting 3 7.7
2020-Sep-22 10:40 294 1 gusting 3 7.6
2020-Sep-22 10:35 304 1 gusting 2 7.6
2020-Sep-22 10:30 306 1 gusting 2 7.6
2020-Sep-22 10:25 293 1 gusting 2 7.6
2020-Sep-22 10:20 273 1 7.6
2020-Sep-22 10:15 7.7
2020-Sep-22 10:10 7.8
2020-Sep-22 10:05 358 1 gusting 3 8.1
2020-Sep-22 10:00 011 1 gusting 2 7.8
2020-Sep-22 09:55 7.7
2020-Sep-22 09:50 7.7
2020-Sep-22 09:45 7.8
2020-Sep-22 09:40 7.8
2020-Sep-22 09:35 328 1 gusting 2 7.8
2020-Sep-22 09:30 291 1 gusting 3 7.8
2020-Sep-22 09:25 334 0 gusting 3 8.1
2020-Sep-22 09:20 8.1
2020-Sep-22 09:15 8.2
2020-Sep-22 09:10 8.1
2020-Sep-22 09:05 334 1 gusting 2 8.3
2020-Sep-22 09:00 327 1 gusting 2 8.5
2020-Sep-22 08:55 324 0 gusting 3 8.5
2020-Sep-22 08:50 341 1 gusting 3 8.6
2020-Sep-22 08:45 330 1 gusting 3 8.6
2020-Sep-22 08:40 339 2 gusting 3 8.5
2020-Sep-22 08:35 329 1 gusting 2 8.3
2020-Sep-22 08:30 060 0 gusting 2 8.6
2020-Sep-22 08:25 357 1 gusting 2 8.5
2020-Sep-22 08:20 328 1 gusting 3 8.6
2020-Sep-22 08:15 342 1 gusting 3 8.8
2020-Sep-22 08:10 008 1 gusting 2 8.6
2020-Sep-22 08:05 8.2
2020-Sep-22 08:00 314 1 gusting 3 8.5